Paris Le Bourget, France

10:56 AM CEST on August 21, 2017 (GMT +0200)
Le Bourget

Weather History for LFPB - August, 2013

Change the Weather History Date:

Sunday, August 25, 2013

  Actual Average Record
Temperature  
Mean Temperature 58 °F -  
Max Temperature 62 °F 70 °F 97 °F (2016)
Min Temperature 55 °F 53 °F 51 °F (1998)
Degree Days  
Heating Degree Days 6    
Growing Degree Days 8 (Base 50)    
Moisture  
Dew Point 55 °F    
Average Humidity 95    
Maximum Humidity 100    
Minimum Humidity 77    
Precipitation  
Precipitation 0.00 in 0.07 in - ()
Sea Level Pressure  
Sea Level Pressure 29.89 in    
Wind  
Wind Speed 9 mph ()    
Max Wind Speed 14 mph    
Max Gust Speed -    
Visibility 5.7 miles    
Events Rain    
Averages and records for this station are not official NWS values.
T = Trace of Precipitation, MM = Missing Value Source: Averaged Metar Reports

Daily Weather History Graph

Daily Weather History Graph

Search for Another Location

Airport or City:

Trip Planner

Search our weather history database for the weather conditions in past years. The results will help you decide how hot, cold, wet, or windy it might be!

Date:

Astronomy

Aug. 25, 2013 Rise Set
Actual Time 6:56 AM CEST 8:46 PM CEST
Civil Twilight 6:23 AM CEST 9:20 PM CEST
Nautical Twilight 5:41 AM CEST 10:01 PM CEST
Astronomical Twilight 4:55 AM CEST 10:47 PM CEST
Moon 10:36 PM CEST (8/25) 12:13 PM CEST (8/25)
Length of Visible Light 14h 57m
Length of Day
13h 49m
Waning Gibbous, 78% of the Moon is Illuminated
Aug 25
Waning Gibbous
Aug 28
Last Quarter
Sep 5
New
Sep 12
First Quarter
Sep 19
Full

Hourly Weather History & Observations

Time (CEST) Temp. Dew Point Humidity Pressure Visibility Wind Dir Wind Speed Gust Speed Precip Events Conditions
12:00 AM 62.6 °F 55.4 °F 77% 29.89 in 6.2 mi West 13.8 mph - N/A   Overcast
12:30 AM 60.8 °F 55.4 °F 82% 29.92 in 6.2 mi West 13.8 mph - N/A Rain Light Rain
1:00 AM 59.0 °F 55.4 °F 88% 29.89 in 6.2 mi West 11.5 mph - N/A Rain Light Rain
1:30 AM 59.0 °F 55.4 °F 88% 29.89 in 6.2 mi West 12.7 mph - N/A Rain Light Rain
2:00 AM 57.2 °F 55.4 °F 94% 29.89 in 6.2 mi West 13.8 mph - N/A Rain Light Rain
2:30 AM 57.2 °F 55.4 °F 94% 29.89 in 6.2 mi West 10.4 mph - N/A Rain Light Rain
3:00 AM 57.2 °F 55.4 °F 94% 29.89 in 6.2 mi WSW 11.5 mph - N/A Rain Light Rain
3:30 AM 55.4 °F 55.4 °F 100% 29.89 in 6.2 mi WSW 10.4 mph - N/A Rain Light Rain
4:00 AM 55.4 °F 55.4 °F 100% 29.89 in 6.2 mi WSW 11.5 mph - N/A Rain Light Rain
4:30 AM 55.4 °F 55.4 °F 100% 29.86 in 5.6 mi WSW 12.7 mph - N/A Rain Light Rain
5:00 AM 55.4 °F 53.6 °F 94% 29.86 in 6.2 mi WSW 11.5 mph - N/A Rain Light Rain
5:30 AM 55.4 °F 53.6 °F 94% 29.86 in 6.2 mi WSW 11.5 mph - N/A Rain Rain
6:00 AM 55.4 °F 53.6 °F 94% 29.86 in 6.2 mi WSW 10.4 mph - N/A Rain Rain
6:30 AM 55.4 °F 53.6 °F 94% 29.86 in 6.2 mi WSW 8.1 mph - N/A Rain Light Rain
7:00 AM 55.4 °F 53.6 °F 94% 29.86 in 6.2 mi WSW 9.2 mph - N/A Rain Rain
7:30 AM 55.4 °F 53.6 °F 94% 29.86 in 5.0 mi WSW 8.1 mph - N/A Rain Rain
8:00 AM 55.4 °F 53.6 °F 94% 29.86 in 4.3 mi SW 9.2 mph - N/A Rain Rain
8:30 AM 55.4 °F 53.6 °F 94% 29.86 in 4.3 mi SW 6.9 mph - N/A Rain Rain
9:00 AM 55.4 °F 53.6 °F 94% 29.86 in - SW 6.9 mph - N/A Rain Rain
9:30 AM 55.4 °F 53.6 °F 94% 29.86 in 4.3 mi SSW 8.1 mph - N/A Rain Rain
10:00 AM 55.4 °F 53.6 °F 94% 29.86 in 6.2 mi SW 8.1 mph - N/A Rain Rain
10:30 AM 55.4 °F 53.6 °F 94% 29.86 in 5.6 mi SW 8.1 mph - N/A Rain Light Rain
11:00 AM 55.4 °F 53.6 °F 94% 29.86 in 6.2 mi SW 8.1 mph - N/A Rain Light Rain
11:30 AM 55.4 °F 53.6 °F 94% 29.86 in 6.2 mi SW 6.9 mph - N/A Rain Light Rain
12:00 PM 55.4 °F 53.6 °F 94% 29.86 in 4.3 mi SSW 8.1 mph - N/A Rain Light Rain
12:30 PM 55.4 °F 55.4 °F 100% 29.86 in 6.2 mi SSW 10.4 mph - N/A   Light Drizzle
1:00 PM 57.2 °F 55.4 °F 94% 29.86 in - South 8.1 mph - N/A   Drizzle
1:30 PM 57.2 °F 55.4 °F 94% 29.89 in - South 6.9 mph - N/A Rain Light Rain
2:00 PM 57.2 °F 55.4 °F 94% 29.89 in - South 8.1 mph - N/A Rain Light Rain
2:30 PM 57.2 °F 57.2 °F 100% 29.89 in 3.1 mi South 9.2 mph - N/A Rain Light Rain
3:00 PM 57.2 °F 57.2 °F 100% 29.89 in 3.1 mi South 8.1 mph - N/A Rain Light Rain
3:30 PM 57.2 °F 57.2 °F 100% 29.89 in 6.2 mi South 8.1 mph - N/A   Light Drizzle
4:00 PM 57.2 °F 57.2 °F 100% 29.89 in 6.2 mi South 6.9 mph - N/A Rain Light Rain
4:30 PM 57.2 °F 57.2 °F 100% 29.89 in - South 8.1 mph - N/A Rain Light Rain
5:00 PM 57.2 °F 57.2 °F 100% 29.89 in 3.1 mi South 8.1 mph - N/A Rain Light Rain
5:30 PM 59.0 °F 57.2 °F 94% 29.89 in 5.0 mi South 8.1 mph - N/A Rain Light Rain
6:00 PM 59.0 °F 57.2 °F 94% 29.89 in 6.2 mi SSE 5.8 mph - N/A   Overcast
6:30 PM 59.0 °F 57.2 °F 94% 29.89 in 6.2 mi SSE 6.9 mph - N/A   Overcast
7:00 PM 59.0 °F 57.2 °F 94% 29.92 in 6.2 mi South 5.8 mph - N/A   Overcast
7:30 PM 59.0 °F 57.2 °F 94% 29.92 in 6.2 mi ESE 4.6 mph - N/A   Overcast
8:00 PM 59.0 °F 57.2 °F 94% 29.92 in 6.2 mi ESE 5.8 mph - N/A   Overcast
8:30 PM 59.0 °F 57.2 °F 94% 29.92 in 6.2 mi East 5.8 mph - N/A   Overcast
9:00 PM 59.0 °F 57.2 °F 94% 29.92 in 6.2 mi East 4.6 mph - N/A   Overcast
9:30 PM 59.0 °F 57.2 °F 94% 29.95 in 6.2 mi East 4.6 mph - N/A   Mostly Cloudy
10:00 PM 59.0 °F 57.2 °F 94% 29.95 in 6.2 mi East 3.5 mph - N/A   Overcast
10:30 PM 57.2 °F 55.4 °F 94% 29.95 in 6.2 mi East 3.5 mph - N/A   Scattered Clouds
11:00 PM 55.4 °F 53.6 °F 94% 29.95 in 6.2 mi ENE 3.5 mph - N/A   Unknown
11:30 PM 55.4 °F 55.4 °F 100% 29.95 in 5.6 mi NNE 3.5 mph - N/A   Mostly Cloudy